Location: *
(49.8044°N, 4.0558°E)
Time: 18:17:46
(UTC+00:00)

ATLAS 2AS CENTAUR R/B - Pass Details

Date: 09 April 2020
Orbit: 929 x 1283 km, 63.7° (Epoch: 21 May)

Event Time Altitude Azimuth Distance (km) Brightness Sun altitude
Rises 19:55:44 0° 316° (NW) 4,168 7.4 -13.8°
Reaches altitude 10° 19:58:47 10° 309° (NW) 3,156 6.6 -14.2°
Maximum altitude 20:05:36 38° 245° (WSW) 1,663 4.0 -15.2°
Drops below altitude 10° 20:11:54 10° 179° (S) 2,907 4.6 -16.0°
Enters shadow 20:13:01 - 176° (S) 3,270 4.9 -16.2°
